Tracking 29892 objects as of 21-Nov-2024
HD Live streaming from Space Station
objects crossing your sky now

STARLINK-6118

Track STARLINK-6118 now!
10-day predictions
STARLINK-6118 is classified as:


NORAD ID: 57106
Int'l Code: 2023-090F
Perigee: 565.7 km
Apogee: 566.8 km
Inclination: 43.0 °
Period: 95.8 minutes
Semi major axis: 6937 km
RCS: Unknown
Launch date: June 23, 2023
Source: United States (US)
Launch site: AIR FORCE EASTERN TEST RANGE (AFETR)
Your satellite tracking list
Your tracking list is empty




NASA's NSSDC Master Catalog

Two Line Element Set (TLE):
1 57106U 23090F   24325.38926533 -.00001836  00000-0 -12088-3 0  9990
2 57106  43.0042 332.0955 0000810 272.5746  87.5003 15.02529113 79067
Source of the keplerian elements: AFSPC